TimeEDT,TemperatureF,Dew PointF,Humidity,Sea Level PressureIn,VisibilityMPH,Wind Direction,Wind SpeedMPH,Gust SpeedMPH,PrecipitationIn,Events,Conditions,WindDirDegrees,DateUTC
12:53 AM,26.1,15.1,63,30.28,10.0,SW,4.6,-,N/A,,Clear,220,2013-04-03 04:53:00
1:53 AM,25.0,16.0,69,30.29,10.0,WSW,6.9,-,N/A,,Clear,240,2013-04-03 05:53:00
2:53 AM,26.1,18.0,71,30.29,10.0,WSW,8.1,-,N/A,,Clear,250,2013-04-03 06:53:00
3:53 AM,25.0,18.0,75,30.29,10.0,WSW,9.2,-,N/A,,Clear,250,2013-04-03 07:53:00
4:53 AM,24.1,18.0,77,30.32,10.0,West,4.6,-,N/A,,Clear,270,2013-04-03 08:53:00
5:53 AM,25.0,18.0,75,30.35,10.0,North,6.9,-,N/A,,Clear,360,2013-04-03 09:53:00
6:53 AM,25.0,17.1,72,30.37,10.0,NNW,3.5,-,N/A,,Clear,340,2013-04-03 10:53:00
7:53 AM,25.0,16.0,69,30.40,10.0,Calm,Calm,-,N/A,,Clear,0,2013-04-03 11:53:00
8:53 AM,30.0,16.0,56,30.42,10.0,Calm,Calm,-,N/A,,Clear,0,2013-04-03 12:53:00
9:53 AM,33.1,15.1,48,30.43,10.0,NNW,10.4,-,N/A,,Partly Cloudy,330,2013-04-03 13:53:00
10:53 AM,35.1,14.0,42,30.46,10.0,NW,9.2,23.0,N/A,,Partly Cloudy,320,2013-04-03 14:53:00
11:53 AM,37.0,12.9,37,30.47,10.0,WNW,8.1,16.1,N/A,,Partly Cloudy,300,2013-04-03 15:53:00
12:53 PM,37.9,12.9,36,30.46,10.0,WNW,11.5,17.3,N/A,,Partly Cloudy,300,2013-04-03 16:53:00
1:53 PM,39.0,10.9,32,30.44,10.0,North,5.8,18.4,N/A,,Partly Cloudy,10,2013-04-03 17:53:00
2:53 PM,41.0,12.0,31,30.42,10.0,NNW,9.2,18.4,N/A,,Partly Cloudy,330,2013-04-03 18:53:00
3:53 PM,42.1,10.9,28,30.41,10.0,Calm,Calm,-,N/A,,Partly Cloudy,0,2013-04-03 19:53:00
4:53 PM,44.1,9.0,24,30.39,10.0,Calm,Calm,-,N/A,,Partly Cloudy,0,2013-04-03 20:53:00
5:53 PM,45.0,9.0,23,30.39,10.0,Calm,Calm,-,N/A,,Partly Cloudy,0,2013-04-03 21:53:00
6:53 PM,43.0,10.9,27,30.38,10.0,South,6.9,-,N/A,,Partly Cloudy,170,2013-04-03 22:53:00
7:53 PM,39.0,18.0,43,30.38,10.0,West,9.2,-,N/A,,Scattered Clouds,270,2013-04-03 23:53:00
8:53 PM,35.1,18.0,50,30.36,10.0,West,4.6,-,N/A,,Partly Cloudy,270,2013-04-04 00:53:00
9:53 PM,34.0,18.0,52,30.38,10.0,West,8.1,-,N/A,,Partly Cloudy,280,2013-04-04 01:53:00
10:53 PM,30.0,18.0,61,30.38,10.0,West,4.6,-,N/A,,Partly Cloudy,260,2013-04-04 02:53:00
11:53 PM,28.9,18.0,64,30.36,10.0,WSW,3.5,-,N/A,,Partly Cloudy,240,2013-04-04 03:53:00